[[{"header":{"parameterUnit":"m.s-1","parameterCategory":1,"la1":30.2991,"la2":30.254,"lo1":-89.0895,"lo2":-89.0444,"dy":0.0017,"dx":0.0017,"nx":28,"ny":28,"refTime":"2025-11-20T03:00:00:Z","depth":0,"parameterNumber":2,"parameterNumberName":"U-component_of_WINDS"},"data":[0,0,0,0,0,0,0,0,0,0,0,0,0,0,0,0,0,0,0,0,0,0,0,0,0,0,0,0,0,0,0,0,0,0,0,0,0,0,0,0,0,0,0,0,0,0,0,0,0,0,0,0,0,0,0,0,0,0,-1.058,-1.058,0,-1.0529,-1.0528,-1.0528,-1.0442,-1.0441,-1.0439,-1.0438,-1.0385,-1.0385,-1.0385,0,0,0,0,0,0,0,0,0,0,0,0,0,-1.0607,-1.0607,-1.058,-1.058,-1.0579,-1.0529,-1.0528,-1.0527,-1.0442,-1.0441,-1.0439,-1.0437,-1.0385,-1.0385,-1.0385,0,0,0,0,0,0,0,0,0,0,0,0,0,-1.0579,-1.0606,-1.058,-1.053,-1.0525,-1.0529,-1.0528,-1.0527,-1.0443,-1.0441,-1.0438,-1.0436,-1.0385,-1.0385,-1.0386,-1.0434,0,0,-1.0386,-1.0386,0,0,0,0,0,0,0,0,-1.0581,-1.0578,-1.0538,-1.0534,-1.0528,-1.0489,-1.0518,-1.0496,-1.0443,-1.0474,-1.0438,-1.0435,-1.0422,-1.0419,-1.0414,-1.0431,-1.0429,-1.0386,-1.0386,-1.0386,-1.0386,0,0,0,0,0,0,0,-1.0583,-1.058,-1.056,-1.0538,-1.0532,-1.0511,-1.0505,-1.0514,-1.0462,-1.0471,-1.0465,-1.046,-1.0419,-1.0415,-1.0413,-1.0428,-1.0386,-1.0386,-1.0386,-1.0386,-1.0483,-1.0486,0,0,0,0,0,0,-1.0592,-1.0582,-1.0561,-1.0558,-1.0549,-1.0513,-1.0505,-1.0504,-1.0462,-1.0453,-1.0462,-1.0456,-1.0415,-1.0413,-1.041,-1.0464,-1.0386,-1.0386,-1.0386,-1.0481,-1.0484,-1.0487,0,0,0,0,0,0,-1.0593,-1.0591,-1.0563,-1.0569,-1.0563,-1.0515,-1.0514,-1.0505,-1.05,-1.0455,-1.0445,-1.0467,-1.0414,-1.041,-1.0429,-1.0461,-1.0386,-1.0386,-1.0478,-1.0482,-1.0485,-1.0573,0,0,0,0,0,0,-1.0594,-1.0592,-1.0609,-1.057,-1.0564,-1.0582,-1.0516,-1.0505,-1.0501,-1.0492,-1.0457,-1.0449,-1.0411,-1.0429,-1.0429,-1.046,-1.0386,-1.0475,-1.048,-1.0484,-1.0567,-1.0579,-1.059,0,0,0,0,0,-1.0595,-1.0635,-1.061,-1.0608,-1.0584,-1.0584,-1.0581,-1.0537,-1.0504,-1.0521,-1.0492,-1.045,-1.0458,-1.0432,-1.0431,-1.0463,-1.0472,-1.0478,-1.0484,-1.0562,-1.0577,-1.0589,0,0,0,0,0,0,-1.0679,-1.0629,-1.0601,-1.0629,-1.0612,-1.057,-1.059,-1.0554,-1.0546,-1.0538,-1.0485,-1.0477,-1.0503,-1.0485,-1.0456,-1.0508,-1.0459,-1.0465,-1.0518,-1.0532,-1.0544,-1.0547,-1.0386,0,0,0,0,0,-1.0702,-1.0706,-1.0662,-1.0691,-1.0684,-1.0639,-1.0638,-1.0605,-1.0585,-1.0577,-1.0549,-1.0532,-1.053,-1.053,-1.0527,-1.0564,-1.0556,-1.0586,-1.0597,-1.0607,-1.0612,-1.0632,-1.0645,-1.0505,-1.0505,-1.0505,0,0,-1.0747,-1.072,-1.0726,-1.0708,-1.069,-1.0696,-1.0633,-1.0642,-1.0646,-1.0578,-1.0594,-1.0574,-1.0551,-1.0579,-1.059,-1.0565,-1.0649,-1.0614,-1.0622,-1.0622,-1.0639,-1.0652,-1.0664,-1.0509,-1.0508,-1.0508,0,0,-1.0832,-1.0812,-1.0835,-1.0819,-1.0794,-1.0764,-1.077,-1.0734,-1.0718,-1.0733,-1.0683,-1.0688,-1.0686,-1.0672,-1.0664,-1.0748,-1.0709,-1.0748,-1.0807,-1.0827,-1.0838,-1.0847,-1.0877,-1.0888,-1.0754,-1.0754,-1.0754,0,-1.0891,-1.0898,-1.0851,-1.0863,-1.0857,-1.0797,-1.082,-1.0808,-1.0783,-1.078,-1.0752,-1.075,-1.073,-1.0755,-1.0776,-1.0772,-1.0777,-1.0751,-1.084,-1.0849,-1.0857,-1.0885,-1.0896,-1.0759,-1.0758,-1.0758,-1.0757,0,-1.0972,-1.0978,-1.1,-1.0977,-1.0974,-1.0992,-1.0948,-1.0951,-1.092,-1.0894,-1.0911,-1.0885,-1.0875,-1.0879,-1.0849,-1.0901,-1.0885,-1.085,-1.0799,-1.0876,-1.0901,-1.0912,-1.0766,-1.0764,-1.0762,-1.0761,0,0,-1.1107,-1.106,-1.1069,-1.1059,-1.1028,-1.1031,-1.1047,-1.1038,-1.1042,-1.1027,-1.1039,-1.1041,-1.1008,-1.1,-1.0968,-1.0985,-1.1053,-1.0947,-1.0946,-1.0968,-1.1109,-1.1136,-1.1149,-1.1028,-1.103,-1.1032,-1.1111,0,-1.1186,-1.1209,-1.1169,-1.1202,-1.1207,-1.1152,-1.1166,-1.1149,-1.1125,-1.1127,-1.1101,-1.1103,-1.1059,-1.1054,-1.1069,-1.1042,-1.1081,-1.1036,-1.1039,-1.104,-1.1046,-1.1162,-1.119,-1.1266,-1.1121,-1.1123,-1.1124,0,-1.1279,-1.127,-1.1304,-1.1273,-1.1273,-1.1287,-1.1276,-1.1278,-1.1258,-1.124,-1.1232,-1.1195,-1.1209,-1.1162,-1.1181,-1.1152,-1.1151,-1.1139,-1.114,-1.1138,-1.1086,-1.1163,-1.1289,-1.1301,-1.1139,-1.1138,-1.1136,0,-1.1374,-1.1371,-1.1391,-1.1384,-1.1347,-1.1358,-1.1343,-1.1321,-1.1319,-1.131,-1.1308,-1.1302,-1.1298,-1.1294,-1.1256,-1.1225,-1.128,-1.1229,-1.1266,-1.1267,-1.1279,-1.1278,-1.1407,-1.128,-1.128,-1.128,-1.1279,0,-1.1465,-1.1489,-1.1433,-1.1445,-1.147,-1.1424,-1.145,-1.143,-1.1411,-1.1419,-1.1372,-1.138,-1.133,-1.1334,-1.1305,-1.1326,-1.1324,-1.131,-1.1302,-1.1314,-1.1316,-1.1312,-1.1306,-1.1283,-1.1282,-1.1281,-1.1281,0,-1.1575,-1.1538,-1.1557,-1.1521,-1.1513,-1.1533,-1.1503,-1.1513,-1.1488,-1.1499,-1.1499,-1.1459,-1.1461,-1.1423,-1.1418,-1.1398,-1.1432,-1.1415,-1.1439,-1.1433,-1.1471,-1.1468,-1.1601,-1.1616,-1.1481,-1.1482,-1.1483,0,-1.1635,-1.1651,-1.1618,-1.162,-1.1608,-1.1612,-1.161,-1.1566,-1.1566,-1.1546,-1.1559,-1.1558,-1.1553,-1.156,-1.153,-1.1527,-1.1508,-1.1556,-1.1507,-1.152,-1.1509,-1.1508,-1.151,-1.1565,-1.1567,-1.1568,-1.1569,0,-1.1745,-1.1727,-1.1725,-1.1718,-1.1717,-1.1709,-1.1698,-1.1703,-1.1655,-1.1658,-1.166,-1.1657,-1.1652,-1.1651,-1.1642,-1.1628,-1.1591,-1.1585,-1.1593,-1.1605,-1.1618,-1.1612,-1.1465,-1.1582,-1.1581,-1.158,-1.1579,-1.1578,-1.1831,-1.1844,-1.1823,-1.1823,-1.1811,-1.1802,-1.1811,-1.1787,-1.1787,-1.178,-1.1754,-1.1761,-1.1743,-1.1727,-1.1716,-1.1721,-1.1698,-1.171,-1.1712,-1.1716,-1.1723,-1.1619,-1.1719,-1.1719,-1.1718,-1.1718,-1.1718,0,-1.1939,-1.1924,-1.1924,-1.1911,-1.1912,-1.1878,-1.1865,-1.1868,-1.1874,-1.186,-1.1858,-1.1861,-1.186,-1.1832,-1.1828,-1.1838,-1.1821,-1.1838,-1.1837,-1.1834,-1.1744,-1.1737,-1.1852,-1.1852,-1.1852,-1.1852,-1.1852,-1.1852,-1.1995,-1.2015,-1.1995,-1.2008,-1.1992,-1.1998,-1.1994,-1.1986,-1.1975,-1.198,-1.198,-1.1961,-1.1942,-1.1937,-1.1936,-1.1927,-1.1928,-1.1951,-1.1937,-1.1853,-1.184,-1.1828,-1.1821,-1.1952,-1.1952,-1.2027,-1.2028,-1.2028]},{"header":{"parameterUnit":"m.s-1","parameterCategory":1,"la1":30.2991,"la2":30.254,"lo1":-89.0895,"lo2":-89.0444,"dy":0.0017,"dx":0.0017,"nx":28,"ny":28,"refTime":"2025-11-20T03:00:00:Z","depth":0,"parameterNumber":3,"parameterNumberName":"V-component_of_WINDS"},"data":[0,0,0,0,0,0,0,0,0,0,0,0,0,0,0,0,0,0,0,0,0,0,0,0,0,0,0,0,0,0,0,0,0,0,0,0,0,0,0,0,0,0,0,0,0,0,0,0,0,0,0,0,0,0,0,0,0,0,2.1776,2.1776,0,2.1805,2.1806,2.1806,2.1863,2.1864,2.1865,2.1867,2.1893,2.1892,2.1892,0,0,0,0,0,0,0,0,0,0,0,0,0,2.1767,2.1767,2.1776,2.1776,2.1777,2.1805,2.1806,2.1806,2.1863,2.1864,2.1866,2.1867,2.1893,2.1892,2.1892,0,0,0,0,0,0,0,0,0,0,0,0,0,2.1781,2.1767,2.1776,2.1809,2.1812,2.1805,2.1806,2.1806,2.1863,2.1864,2.1866,2.1868,2.1893,2.1892,2.1892,2.1855,0,0,2.189,2.189,0,0,0,0,0,0,0,0,2.178,2.1781,2.1804,2.1806,2.181,2.1833,2.1812,2.1822,2.1862,2.1843,2.1867,2.1869,2.1871,2.1872,2.1874,2.1856,2.1857,2.189,2.189,2.189,2.1889,0,0,0,0,0,0,0,2.1779,2.178,2.1788,2.1804,2.1808,2.1821,2.1825,2.1814,2.1847,2.1845,2.1849,2.1852,2.1873,2.1874,2.1875,2.1857,2.189,2.189,2.1889,2.1889,2.1811,2.1809,0,0,0,0,0,0,2.1774,2.1779,2.1787,2.1789,2.1799,2.182,2.1824,2.1823,2.1847,2.1853,2.1851,2.1855,2.1875,2.1876,2.1876,2.1834,2.189,2.1889,2.1889,2.1812,2.181,2.1808,0,0,0,0,0,0,2.1773,2.1774,2.1785,2.1785,2.1788,2.1818,2.1817,2.1823,2.1825,2.1852,2.1858,2.1846,2.1876,2.1877,2.186,2.1836,2.1889,2.1888,2.1815,2.1812,2.1809,2.175,0,0,0,0,0,0,2.1773,2.1773,2.176,2.1784,2.1787,2.1769,2.1816,2.1823,2.1824,2.183,2.1849,2.1854,2.1877,2.186,2.1859,2.1836,2.1888,2.1817,2.1813,2.181,2.1754,2.1745,2.1738,0,0,0,0,0,2.1772,2.1741,2.1759,2.1759,2.1771,2.1768,2.1769,2.1798,2.1822,2.1808,2.1826,2.1853,2.1839,2.1858,2.1858,2.1834,2.1818,2.1814,2.181,2.1757,2.1747,2.1738,0,0,0,0,0,0,2.1711,2.1745,2.1765,2.1741,2.1751,2.1777,2.1761,2.1786,2.1789,2.1794,2.1828,2.1832,2.181,2.1821,2.1841,2.1799,2.1833,2.1829,2.1793,2.1783,2.1776,2.1773,2.1888,0,0,0,0,0,2.1695,2.169,2.172,2.1695,2.17,2.1729,2.1729,2.175,2.1762,2.1766,2.1783,2.1792,2.179,2.1787,2.1787,2.1756,2.1761,2.174,2.1732,2.1725,2.172,2.1705,2.1696,2.1795,2.1795,2.1796,0,0,2.1661,2.1679,2.1673,2.1683,2.1694,2.1688,2.1732,2.1723,2.1719,2.1764,2.175,2.1762,2.1775,2.1751,2.1741,2.1759,2.1695,2.172,2.1715,2.1714,2.17,2.1691,2.1682,2.1793,2.1793,2.1794,0,0,2.1596,2.1609,2.1591,2.1601,2.1617,2.1638,2.1633,2.1656,2.1667,2.1653,2.1687,2.1682,2.1678,2.1685,2.1689,2.1629,2.1654,2.1628,2.1585,2.157,2.1562,2.1556,2.1534,2.1526,2.1623,2.1623,2.1623,0,2.1551,2.1544,2.1577,2.1567,2.157,2.1614,2.1595,2.1603,2.1617,2.1618,2.1638,2.1635,2.1646,2.1625,2.161,2.1612,2.1607,2.1625,2.1561,2.1555,2.1549,2.1528,2.152,2.162,2.162,2.1621,2.1621,0,2.1488,2.1482,2.1465,2.148,2.1482,2.1467,2.1498,2.1495,2.1518,2.1536,2.1521,2.1537,2.1541,2.1538,2.1558,2.152,2.153,2.1555,2.1589,2.1535,2.1517,2.1509,2.1615,2.1616,2.1617,2.1618,0,0,2.1382,2.1418,2.1411,2.1418,2.1441,2.1437,2.1424,2.1429,2.1426,2.1436,2.1425,2.1422,2.1446,2.1449,2.1472,2.1459,2.141,2.1485,2.1486,2.147,2.1368,2.1348,2.1338,2.1428,2.1426,2.1425,2.1367,0,2.1321,2.1302,2.1333,2.1307,2.1302,2.1344,2.1334,2.1346,2.1363,2.1361,2.1379,2.1376,2.1408,2.1411,2.14,2.1418,2.139,2.1423,2.1417,2.1417,2.1411,2.1329,2.1307,2.1251,2.136,2.1358,2.1357,0,2.1246,2.1253,2.1227,2.1252,2.1251,2.1241,2.1249,2.1247,2.1262,2.1275,2.128,2.1308,2.1297,2.1331,2.1316,2.1338,2.1338,2.1347,2.1346,2.1345,2.1383,2.1325,2.1234,2.1225,2.1346,2.1347,2.1348,0,2.1171,2.1174,2.1159,2.1165,2.1194,2.1185,2.1197,2.1214,2.1215,2.1222,2.1223,2.1228,2.123,2.1233,2.1261,2.1284,2.1242,2.1279,2.1252,2.1251,2.124,2.124,2.1147,2.1242,2.1242,2.1242,2.1242,0,2.1098,2.108,2.1126,2.1116,2.1098,2.1134,2.1114,2.113,2.1145,2.1139,2.1175,2.1169,2.1206,2.1204,2.1225,2.1209,2.121,2.122,2.1226,2.1216,2.1215,2.1215,2.1219,2.124,2.1241,2.1241,2.1241,0,2.101,2.104,2.1026,2.1056,2.1063,2.1048,2.1073,2.1065,2.1086,2.1077,2.1078,2.1109,2.1108,2.1137,2.114,2.1155,2.1129,2.1142,2.1124,2.1128,2.1099,2.1101,2.1002,2.0991,2.1094,2.1093,2.1092,0,2.0961,2.0948,2.0977,2.0977,2.0987,2.0985,2.0988,2.1023,2.1024,2.1041,2.1031,2.1034,2.1037,2.1033,2.1056,2.1059,2.1072,2.1037,2.1073,2.1064,2.1071,2.1071,2.107,2.1029,2.1028,2.1027,2.1026,0,2.087,2.0887,2.0889,2.0898,2.09,2.0908,2.0918,2.0915,2.0954,2.0953,2.0954,2.0957,2.0962,2.0964,2.0972,2.0983,2.101,2.1015,2.1009,2.0998,2.0988,2.0993,2.1103,2.1017,2.1018,2.1018,2.1019,2.1019,2.08,2.0791,2.0811,2.0813,2.0825,2.0834,2.0828,2.0849,2.085,2.0858,2.088,2.0876,2.0892,2.0907,2.0916,2.0913,2.093,2.0921,2.0919,2.0916,2.091,2.099,2.0915,2.0915,2.0915,2.0916,2.0916,0,2.0711,2.0726,2.0728,2.0742,2.0744,2.0772,2.0785,2.0785,2.0782,2.0795,2.0799,2.0799,2.0802,2.0825,2.083,2.0824,2.0837,2.0824,2.0824,2.0826,2.0895,2.0899,2.0813,2.0813,2.0813,2.0813,2.0813,2.0813,2.0665,2.0651,2.067,2.0663,2.0679,2.0677,2.0682,2.069,2.0702,2.0701,2.0704,2.072,2.0738,2.0745,2.0748,2.0755,2.0754,2.0737,2.0748,2.0811,2.0821,2.083,2.0835,2.0737,2.0737,2.068,2.0679,2.0679]}]]